User: anonymous   Login
Location: Fort Wayne
(41.1310°N, 85.1290°W)
Time: 12:28:39
(UTC-04:00)
Language:

Cosmos 1953 - Orbit

View from above orbital plane
View from above orbital plane
View from above satellite
View from above satellite

Ground track
Ground track

The orbit data is extracted from the following two-line orbital elements,

1 19210U 88050A   16151.20719727  .00000382  00000-0  24980-4 0  9993
2 19210  82.5195  44.5627 0014944 123.1032 237.1631 15.04788062520233
Epoch (UTC): 30 May 2016 04:58:21
Eccentricity: 0.0014944
inclination: 82.5195°
perigee height: 542 km
apogee height: 562 km
right ascension of ascending node: 44.5627°
argument of perigee: 123.1032°
revolutions per day: 15.04788062
mean anomaly at epoch: 237.1631°
orbit number at epoch: 52023

The dashed part of the orbit path shows where the satellite is in the earth's shadow,  

DLR